FW0014 Weather Reports


Display with metric or nautical units.
time (UTC)temp
F
wind
direction
speed
MPH
gust
MPH
rain 1hr
in
rain 24hr
in
rain mn
in
humidity
%
barometer
mb
20260502230322 72 112 0.0 0.0 0.00 0.00 0.00 45 1021.5
20260502230054 72 68 0.0 0.0 0.00 0.00 0.00 44 1021.1
20260502225818 72 38 0.0 0.0 0.00 0.00 0.00 46 1021.4
20260502225543 72 18 0.0 0.0 0.00 0.00 0.00 46 1021.0
20260502225333 72 145 0.0 0.0 0.00 0.00 0.00 46 1021.3
20260502225012 71 146 0.0 0.0 0.00 0.00 0.00 46 1020.9
20260502224829 72 145 0.0 0.0 0.00 0.00 0.00 45 1021.3
20260502224504 71 129 0.0 0.0 0.00 0.00 0.00 46 1021.0
20260502224325 72 128 0.0 0.0 0.00 0.00 0.00 46 1021.3
20260502224100 71 128 0.0 0.0 0.00 0.00 0.00 46 1021.1
20260502223821 72 128 0.0 0.0 0.00 0.00 0.00 46 1021.4
20260502223550 71 128 0.0 0.0 0.00 0.00 0.00 46 1021.0
20260502223317 72 128 0.0 0.0 0.00 0.00 0.00 47 1021.5
20260502223040 72 100 0.0 0.0 0.00 0.00 0.00 46 1021.1
20260502222852 72 46 0.0 0.0 0.00 0.00 0.00 46 1021.4
20260502222506 72 117 0.0 0.0 0.00 0.00 0.00 46 1021.1
20260502222348 72 75 0.0 0.0 0.00 0.00 0.00 46 1021.4
20260502222038 72 4 0.0 0.0 0.00 0.00 0.00 47 1021.2
20260502221823 72 68 0.0 0.0 0.00 0.00 0.00 46 1021.5
20260502221532 72 55 0.0 0.0 0.00 0.00 0.00 44 1021.1
20260502221336 72 69 0.0 0.0 0.00 0.00 0.00 45 1021.5
20260502221056 72 72 0.0 0.0 0.00 0.00 0.00 45 1021.2
20260502220832 72 56 0.0 0.0 0.00 0.00 0.00 44 1021.6
20260502220548 72 93 0.0 0.0 0.00 0.00 0.00 44 1021.2
20260502220328 72 316 0.0 0.0 0.00 0.00 0.00 44 1021.5
20260502220012 71 359 0.0 0.0 0.00 0.00 0.00 45 1021.3
20260502215824 72 126 0.0 0.0 0.00 0.00 0.00 44 1021.6
20260502215506 71 294 0.0 0.0 0.00 0.00 0.00 43 1021.4
20260502215321 72 323 0.0 0.0 0.00 0.00 0.00 44 1021.6
20260502215059 71 23 0.0 0.0 0.00 0.00 0.00 44 1021.5
20260502214817 72 4 0.0 0.0 0.00 0.00 0.00 45 1021.8
20260502214552 71 53 0.0 0.0 0.00 0.00 0.00 45 1021.5
20260502214314 72 53 0.0 0.0 0.00 0.00 0.00 45 1021.8
20260502214046 71 308 0.0 0.0 0.00 0.00 0.00 44 1021.5
20260502213831 72 39 0.0 0.0 0.00 0.00 0.00 46 1021.9
20260502213541 71 85 0.0 0.0 0.00 0.00 0.00 45 1021.7
20260502213325 71 85 0.0 0.0 0.00 0.00 0.00 43 1022.0
20260502213038 71 56 0.0 0.0 0.00 0.00 0.00 45 1021.8
20260502212821 72 359 0.0 0.0 0.00 0.00 0.00 46 1022.2
20260502212522 71 99 0.0 0.0 0.00 0.00 0.00 44 1021.8
20260502212316 72 62 0.0 0.0 0.00 0.00 0.00 44 1022.3
20260502212016 71 54 0.0 0.0 0.00 0.00 0.00 45 1022.0
20260502211832 72 123 0.0 0.0 0.00 0.00 0.00 45 1022.1
20260502211600 71 123 0.0 0.0 0.00 0.00 0.00 45 1022.0
20260502211329 71 66 0.0 0.0 0.00 0.00 0.00 47 1022.2
20260502211051 71 8 0.0 4.0 0.00 0.00 0.00 44 1022.0
20260502210825 71 43 0.0 6.0 0.00 0.00 0.00 44 1022.3
20260502210545 71 54 0.0 6.0 0.00 0.00 0.00 45 1022.0
20260502210318 71 64 1.0 10.0 0.00 0.00 0.00 45 1022.3
20260502210020 71 64 4.0 11.0 0.00 0.00 0.00 45 1022.1
20260502205814 71 16 3.0 11.0 0.00 0.00 0.00 48 1022.5
20260502205504 71 50 6.0 13.0 0.00 0.00 0.00 46 1022.2
20260502205330 71 62 6.0 13.0 0.00 0.00 0.00 46 1022.6
20260502205057 71 45 8.0 13.0 0.00 0.00 0.00 44 1022.3
20260502204825 71 39 8.0 12.0 0.00 0.00 0.00 46 1022.6
20260502204550 71 52 3.0 6.0 0.00 0.00 0.00 47 1022.4
20260502204322 71 83 2.0 9.0 0.00 0.00 0.00 45 1022.7
20260502204042 71 359 2.0 11.0 0.00 0.00 0.00 45 1022.4
20260502203818 71 336 4.0 11.0 0.00 0.00 0.00 46 1022.7
20260502203536 71 18 6.0 11.0 0.00 0.00 0.00 45 1022.5
20260502203354 71 53 5.0 9.0 0.00 0.00 0.00 47 1022.8
20260502203058 71 338 3.0 7.0 0.00 0.00 0.00 49 1022.6
20260502202849 71 119 4.0 6.0 0.00 0.00 0.00 46 1022.8
20260502202527 71 37 0.0 0.0 0.00 0.00 0.00 47 1022.5
20260502202325 71 43 0.0 0.0 0.00 0.00 0.00 50 1022.8
20260502202019 71 37 0.0 0.0 0.00 0.00 0.00 49 1022.6
20260502201821 71 71 0.0 0.0 0.00 0.00 0.00 49 1022.8
20260502201513 70 156 0.0 0.0 0.00 0.00 0.00 47 1022.6
20260502201316 71 156 0.0 0.0 0.00 0.00 0.00 48 1022.8
20260502201056 71 69 0.0 0.0 0.00 0.00 0.00 50 1022.7
20260502200832 71 70 0.0 0.0 0.00 0.00 0.00 51 1022.9
20260502200548 70 77 0.0 0.0 0.00 0.00 0.00 49 1022.7
20260502200327 71 26 0.0 0.0 0.00 0.00 0.00 49 1022.9
20260502200054 70 50 0.0 0.0 0.00 0.00 0.00 48 1022.9
20260502195822 71 4 0.0 0.0 0.00 0.00 0.00 49 1023.0
20260502195529 70 37 0.0 0.0 0.00 0.00 0.00 51 1022.8
20260502195317 70 46 0.0 0.0 0.00 0.00 0.00 49 1023.0
20260502195019 70 60 0.0 0.0 0.00 0.00 0.00 50 1022.8
20260502194853 70 58 0.0 0.0 0.00 0.00 0.00 50 1023.1
20260502194553 70 81 0.0 0.0 0.00 0.00 0.00 49 1023.0
20260502194328 70 45 0.0 0.0 0.00 0.00 0.00 50 1023.1
20260502194045 70 79 0.0 0.0 0.00 0.00 0.00 51 1023.0
20260502193842 70 39 0.0 0.0 0.00 0.00 0.00 50 1023.2
20260502193521 69 16 0.0 0.0 0.00 0.00 0.00 49 1023.1
20260502193318 70 34 0.0 0.0 0.00 0.00 0.00 52 1023.3
20260502193005 69 4 0.0 0.0 0.00 0.00 0.00 51 1023.0
20260502192815 69 43 0.0 0.0 0.00 0.00 0.00 51 1023.2
20260502192558 69 72 0.0 0.0 0.00 0.00 0.00 50 1023.0
20260502192332 70 11 0.0 0.0 0.00 0.00 0.00 49 1023.1
20260502192047 69 15 0.0 4.0 0.00 0.00 0.00 49 1023.1
20260502191828 70 354 0.0 4.0 0.00 0.00 0.00 48 1023.2
20260502191543 70 11 0.0 4.0 0.00 0.00 0.00 52 1023.1
20260502191322 70 10 0.0 0.0 0.00 0.00 0.00 51 1023.3
20260502191031 70 13 0.0 4.0 0.00 0.00 0.00 53 1023.1
20260502190816 70 45 0.0 4.0 0.00 0.00 0.00 55 1023.2
20260502190556 69 58 0.0 8.0 0.00 0.00 0.00 55 1023.1
20260502190332 69 35 1.0 11.0 0.00 0.00 0.00 55 1023.2
20260502190050 69 48 2.0 15.0 0.00 0.00 0.00 53 1023.2
20260502185829 69 354 4.0 15.0 0.00 0.08 0.00 53 1023.3
20260502185539 69 50 9.0 15.0 0.00 0.08 0.00 54 1023.2
20260502185326 69 4 9.0 15.0 0.00 0.08 0.00 54 1023.3
20260502185031 69 354 8.0 14.0 0.00 0.08 0.00 54 1023.2
20260502184841 69 31 5.0 12.0 0.00 0.08 0.00 54 1023.3
20260502184556 68 335 7.0 14.0 0.00 0.08 0.00 53 1023.2
20260502184315 69 11 6.0 14.0 0.00 0.08 0.00 52 1023.4
20260502184047 68 61 6.0 14.0 0.00 0.08 0.00 53 1023.3
20260502183851 69 93 6.0 12.0 0.00 0.08 0.00 56 1023.4
20260502183513 68 97 4.0 13.0 0.00 0.08 0.00 54 1023.2
20260502183327 69 12 5.0 13.0 0.00 0.08 0.00 55 1023.4
20260502183003 68 47 8.0 13.0 0.00 0.08 0.00 55 1023.3
20260502182556 68 48 5.0 12.0 0.00 0.08 0.00 52 1023.3
20260502182317 69 44 5.0 12.0 0.00 0.08 0.00 56 1023.4
20260502182048 68 42 4.0 12.0 0.00 0.08 0.00 55 1023.3
20260502181833 68 19 3.0 12.0 0.00 0.08 0.00 56 1023.5
20260502181540 68 24 8.0 12.0 0.00 0.08 0.00 55 1023.5
20260502181328 68 21 7.0 11.0 0.00 0.08 0.00 58 1023.7
20260502181029 68 347 5.0 11.0 0.00 0.08 0.00 58 1023.5
20260502180824 68 326 6.0 11.0 0.00 0.08 0.00 56 1023.7
20260502180522 67 339 7.0 11.0 0.00 0.08 0.00 56 1023.6
20260502180319 68 313 5.0 9.0 0.00 0.08 0.00 57 1023.8
20260502170328 65 4 4.0 10.0 0.00 0.16 0.00 65 1024.6
20260502164326 64 343 2.0 11.0 0.00 0.17 0.00 68 1024.8
20260502164007 64 65 5.0 11.0 0.00 0.17 0.00 67 1024.8
20260502163822 64 15 3.0 11.0 0.00 0.17 0.00 68 1024.8
20260502163501 63 4 5.0 8.0 0.00 0.17 0.00 69 1024.8
20260502163318 64 335 3.0 8.0 0.00 0.17 0.00 70 1024.8
20260502163057 63 343 5.0 8.0 0.00 0.17 0.00 68 1024.8
20260502162853 63 359 5.0 10.0 0.00 0.17 0.00 68 1024.8
20260502162516 63 27 2.0 10.0 0.00 0.17 0.00 68 1024.9
20260502162329 63 33 5.0 10.0 0.00 0.17 0.00 67 1024.9
20260502162007 63 18 0.0 11.0 0.00 0.17 0.00 71 1024.9
20260502161823 63 247 1.0 11.0 0.00 0.17 0.00 69 1024.9
20260502161503 63 289 4.0 11.0 0.00 0.17 0.00 68 1024.9
20260502161341 63 337 7.0 11.0 0.00 0.17 0.00 69 1025.0
20260502161035 63 345 4.0 9.0 0.00 0.17 0.00 69 1024.9
20260502160835 63 330 2.0 10.0 0.00 0.17 0.00 69 1024.9
20260502160602 62 317 2.0 10.0 0.00 0.17 0.00 69 1024.9
20260502160330 63 354 2.0 10.0 0.00 0.17 0.00 70 1025.0
20260502152321 61 278 3.0 6.0 0.00 0.17 0.00 74 1024.5
20260502152045 60 294 3.0 8.0 0.00 0.17 0.00 74 1024.4
20260502151818 60 307 2.0 10.0 0.00 0.17 0.00 74 1024.4
20260502151558 60 289 4.0 10.0 0.00 0.17 0.00 74 1024.5
20260502151333 60 304 5.0 10.0 0.00 0.17 0.00 74 1024.4
20260502151033 60 359 5.0 10.0 0.00 0.17 0.00 73 1024.5
20260502150851 60 303 5.0 9.0 0.00 0.17 0.00 75 1024.5
20260502150558 60 312 4.0 6.0 0.00 0.17 0.00 75 1024.6
20260502150326 60 276 3.0 6.0 0.00 0.17 0.00 76 1024.5
20260502130545 50 248 1.0 3.0 0.00 0.37 0.00 91 1023.8
20260502130327 51 248 2.0 3.0 0.00 0.37 0.00 91 1023.6
20260502123530 47 249 2.0 4.0 0.00 0.41 0.00 91 1023.5
20260502123321 48 249 3.0 4.0 0.00 0.41 0.00 91 1023.4
20260502123026 47 249 3.0 4.0 0.00 0.41 0.00 91 1023.4
20260502122816 47 249 3.0 4.0 0.00 0.41 0.00 91 1023.3
20260502122511 47 249 2.0 4.0 0.00 0.41 0.00 91 1023.2
20260502122332 47 249 2.0 4.0 0.00 0.41 0.00 91 1023.2
20260502122043 47 249 2.0 4.0 0.00 0.41 0.00 91 1023.2
20260502121825 47 249 3.0 4.0 0.00 0.41 0.00 90 1023.1
20260502121540 46 249 2.0 4.0 0.00 0.41 0.00 90 1023.1
20260502121322 47 249 3.0 4.0 0.00 0.41 0.00 90 1023.0
20260502121029 46 249 2.0 3.0 0.00 0.41 0.00 90 1022.9
20260502120817 47 249 2.0 4.0 0.00 0.41 0.00 90 1022.8
20260502120553 47 249 2.0 4.0 0.00 0.41 0.00 90 1022.6
20260502120332 47 249 2.0 4.0 0.00 0.41 0.00 90 1022.6
20260502115825 47 249 2.0 3.0 0.00 0.45 0.00 90 1022.5
20260502115537 47 249 2.0 4.0 0.00 0.45 0.00 90 1022.4
20260502115320 47 249 2.0 4.0 0.00 0.45 0.00 90 1022.3
20260502115029 47 249 2.0 4.0 0.00 0.45 0.00 90 1022.2
20260502114816 47 249 3.0 4.0 0.00 0.45 0.00 90 1022.3
20260502114514 47 254 2.0 3.0 0.00 0.45 0.00 90 1022.3
20260502114349 48 359 2.0 3.0 0.00 0.45 0.00 90 1022.3
20260502114047 47 314 2.0 3.0 0.00 0.45 0.00 90 1022.2
20260502113821 48 314 2.0 3.0 0.00 0.45 0.00 90 1022.2
20260502113541 47 359 1.0 3.0 0.00 0.45 0.00 90 1022.1
20260502113317 48 314 2.0 3.0 0.00 0.45 0.00 90 1022.0
20260502113045 47 314 1.0 4.0 0.00 0.45 0.00 90 1021.9
20260502112832 48 314 2.0 4.0 0.00 0.45 0.00 90 1022.0
20260502112516 47 328 2.0 4.0 0.00 0.45 0.00 90 1021.9
20260502112328 48 310 3.0 4.0 0.00 0.45 0.00 90 1022.0
20260502112011 47 307 2.0 4.0 0.00 0.45 0.00 90 1021.8
20260502111946 48 308 3.0 4.0 0.00 0.45 0.00 91 1021.9
20260502111549 47 359 2.0 4.0 0.00 0.45 0.00 91 1021.8
20260502111327 47 359 2.0 4.0 0.00 0.45 0.00 91 1021.7
20260502111039 47 312 2.0 4.0 0.00 0.45 0.00 91 1021.7
20260502110823 47 359 2.0 4.0 0.00 0.45 0.00 91 1021.6
20260502110533 47 312 2.0 4.0 0.00 0.45 0.00 91 1021.7
20260502110318 47 312 2.0 4.0 0.00 0.45 0.00 91 1021.5
20260502110034 47 312 2.0 5.0 0.00 0.45 0.00 91 1021.4
20260502105832 47 311 3.0 5.0 0.00 0.50 0.00 91 1021.5
20260502105511 47 312 2.0 5.0 0.00 0.50 0.00 91 1021.4
20260502105327 47 312 3.0 5.0 0.00 0.50 0.00 91 1021.3
20260502105003 47 312 2.0 4.0 0.00 0.50 0.00 91 1021.3
20260502104822 47 312 2.0 4.0 0.00 0.50 0.00 91 1021.3
20260502104557 47 312 2.0 4.0 0.00 0.50 0.00 91 1021.1
20260502104339 47 312 3.0 5.0 0.00 0.50 0.00 91 1021.1
20260502104028 47 312 1.0 5.0 0.00 0.50 0.00 91 1021.0
20260502103814 47 359 3.0 5.0 0.00 0.50 0.00 91 1021.0
20260502103521 47 312 3.0 5.0 0.00 0.50 0.00 91 1020.8
20260502103331 47 323 2.0 4.0 0.00 0.50 0.00 91 1020.9
20260502103005 47 330 1.0 4.0 0.00 0.50 0.00 91 1020.9
20260502102826 47 329 2.0 4.0 0.00 0.50 0.00 91 1020.7
20260502102602 47 330 2.0 4.0 0.00 0.50 0.00 91 1020.7
20260502102322 47 329 3.0 4.0 0.00 0.50 0.00 91 1020.7
20260502102052 47 339 2.0 3.0 0.00 0.50 0.00 91 1020.6
20260502101817 47 339 2.0 3.0 0.00 0.50 0.00 91 1020.7
20260502101557 47 339 1.0 3.0 0.00 0.50 0.00 91 1020.6
20260502101353 47 339 2.0 3.0 0.00 0.50 0.00 91 1020.6
20260502101010 47 339 2.0 3.0 0.00 0.50 0.00 91 1020.5
20260502100827 47 339 2.0 3.0 0.00 0.50 0.00 91 1020.5
20260502100502 47 339 1.0 3.0 0.00 0.50 0.00 91 1020.6
20260502100323 47 339 2.0 3.0 0.00 0.50 0.00 91 1020.6
20260502100103 47 339 2.0 3.0 0.00 0.50 0.00 91 1020.4
20260502091319 48 359 2.0 4.0 0.00 0.58 0.00 91 1020.6
20260502091051 47 339 1.0 4.0 0.00 0.57 0.00 91 1020.5
20260502090817 48 339 2.0 4.0 0.00 0.58 0.00 91 1020.8
20260502090542 47 339 1.0 4.0 0.00 0.57 0.00 91 1020.5
20260502090333 48 339 3.0 4.0 0.00 0.58 0.00 91 1020.6
20260502071316 49 332 3.0 4.0 0.00 0.66 0.00 90 1020.8
20260502071040 48 359 2.0 4.0 0.00 0.66 0.00 90 1020.6
20260502070831 49 331 2.0 4.0 0.00 0.66 0.00 90 1020.8
20260502070526 48 359 2.0 4.0 0.00 0.66 0.00 90 1020.7
20260502070326 49 332 3.0 4.0 0.00 0.66 0.00 90 1020.8
20260502070037 49 334 2.0 5.0 0.00 0.66 0.00 90 1020.6
20260502065822 49 333 3.0 5.0 0.00 0.66 0.00 90 1020.8
20260502065515 49 359 2.0 5.0 0.00 0.66 0.00 89 1020.6
20260502065316 50 324 3.0 5.0 0.00 0.66 0.00 89 1020.8
20260502065059 49 23 2.0 4.0 0.00 0.66 0.00 89 1020.6
20260502064832 50 23 1.0 4.0 0.00 0.66 0.00 89 1020.9
20260502064604 49 23 2.0 4.0 0.00 0.66 0.00 89 1020.6
20260502064328 50 23 2.0 4.0 0.00 0.66 0.00 89 1020.7
20260502064042 49 23 3.0 4.0 0.00 0.66 0.00 89 1020.5
20260502063824 50 23 3.0 4.0 0.00 0.66 0.00 89 1020.6
20260502063536 49 23 1.0 4.0 0.00 0.66 0.00 89 1020.4
20260502063320 50 23 2.0 4.0 0.00 0.66 0.00 89 1020.5
20260502063039 49 23 2.0 4.0 0.00 0.66 0.00 89 1020.2
20260502062815 50 23 2.0 4.0 0.00 0.66 0.00 89 1020.5
20260502062515 49 23 1.0 4.0 0.00 0.66 0.00 89 1020.1
20260502062331 50 23 2.0 4.0 0.00 0.66 0.00 89 1020.4
20260502062010 49 23 2.0 4.0 0.00 0.66 0.00 90 1020.2
20260502061846 50 359 2.0 4.0 0.00 0.66 0.00 90 1020.4
20260502061541 49 359 2.0 4.0 0.00 0.66 0.00 90 1020.3
20260502061321 50 21 3.0 4.0 0.00 0.66 0.00 90 1020.4
20260502061032 49 354 2.0 8.0 0.00 0.66 0.00 90 1020.4
20260502060816 50 359 3.0 8.0 0.00 0.66 0.00 90 1020.5
20260502060518 49 15 2.0 8.0 0.00 0.66 0.00 90 1020.4
20260502060331 50 350 3.0 8.0 0.00 0.66 0.00 90 1020.6
20260502060115 49 18 3.0 8.0 0.00 0.66 0.00 90 1020.4
20260502055820 50 347 3.0 8.0 0.00 0.67 0.00 91 1020.6
20260502055530 49 359 3.0 6.0 0.00 0.67 0.00 90 1020.4
20260502055317 49 337 3.0 4.0 0.00 0.67 0.00 90 1020.7
20260502055027 49 347 2.0 4.0 0.00 0.67 0.00 90 1020.3
20260502054833 50 359 2.0 4.0 0.00 0.67 0.00 90 1020.6
20260502054526 49 341 1.0 3.0 0.00 0.67 0.00 90 1020.3
20260502054349 50 341 2.0 3.0 0.00 0.67 0.00 90 1020.6
20260502054046 49 359 1.0 3.0 0.00 0.67 0.00 90 1020.5
20260502053823 50 359 2.0 4.0 0.00 0.67 0.00 90 1020.7
20260502053532 49 359 1.0 4.0 0.00 0.67 0.00 90 1020.5
20260502053318 50 359 2.0 4.0 0.00 0.67 0.00 90 1020.7
20260502053024 49 359 2.0 4.0 0.00 0.67 0.00 90 1020.5
20260502052836 50 330 2.0 4.0 0.00 0.67 0.00 90 1020.7
20260502052550 50 359 2.0 5.0 0.00 0.67 0.00 90 1020.4
20260502052351 50 359 2.0 5.0 0.00 0.67 0.00 90 1020.7
20260502052014 50 359 1.0 5.0 0.00 0.67 0.00 90 1020.4
20260502051846 50 359 3.0 5.0 0.00 0.67 0.00 90 1020.6
20260502051548 50 359 2.0 5.0 0.00 0.67 0.00 90 1020.3
20260502051319 50 345 3.0 4.0 0.00 0.67 0.00 90 1020.5
20260502051040 50 13 2.0 4.0 0.00 0.67 0.00 89 1020.2
20260502050836 51 13 2.0 4.0 0.00 0.67 0.00 89 1020.4
20260502050505 50 13 1.0 4.0 0.00 0.67 0.00 89 1020.1
20260502050330 51 13 2.0 4.0 0.00 0.67 0.00 89 1020.4
20260502045819 51 13 1.0 3.0 0.00 0.67 0.67 90 1020.5
20260502045509 50 13 1.0 4.0 0.00 0.67 0.67 90 1020.1
20260502045313 51 13 2.0 4.0 0.00 0.67 0.67 90 1020.4
20260502045001 50 13 2.0 4.0 0.00 0.67 0.67 90 1020.0
20260502044829 51 354 2.0 4.0 0.00 0.67 0.67 90 1020.3
20260502044556 50 354 1.0 4.0 0.00 0.67 0.67 90 1020.1
20260502044324 51 359 2.0 3.0 0.00 0.67 0.67 90 1020.4
20260502044046 51 354 1.0 3.0 0.00 0.67 0.67 89 1020.1
20260502043819 51 359 2.0 4.0 0.00 0.67 0.67 90 1020.5
20260502043538 51 359 1.0 4.0 0.00 0.67 0.67 90 1020.3
20260502043335 51 354 2.0 4.0 0.00 0.67 0.67 90 1020.6
20260502043005 51 359 2.0 4.0 0.00 0.67 0.67 90 1020.0
20260502042828 51 354 2.0 4.0 0.00 0.67 0.67 90 1020.4
20260502042604 51 354 1.0 5.0 0.00 0.67 0.67 90 1020.2
20260502042326 51 354 2.0 5.0 0.00 0.67 0.67 90 1020.4
20260502042055 51 359 2.0 5.0 0.00 0.67 0.67 90 1020.1
20260502041822 51 349 3.0 5.0 0.00 0.67 0.67 90 1020.4
20260502041557 51 343 2.0 5.0 0.00 0.67 0.67 89 1020.0
20260502041316 51 359 2.0 5.0 0.00 0.67 0.67 89 1020.5
20260502041043 51 344 2.0 5.0 0.00 0.67 0.67 89 1020.2
20260502040827 51 354 2.0 5.0 0.00 0.67 0.67 89 1020.4
20260502040532 51 359 2.0 5.0 0.00 0.67 0.67 89 1020.0
20260502040323 51 354 3.0 5.0 0.00 0.67 0.67 89 1020.4
20260502040029 51 45 2.0 5.0 0.00 0.67 0.67 89 1020.1
20260502035818 52 45 2.0 5.0 0.00 0.67 0.67 89 1020.4
20260502035518 51 45 2.0 4.0 0.00 0.67 0.67 89 1020.0
20260502035314 52 45 2.0 4.0 0.00 0.67 0.67 89 1020.3
20260502035002 51 45 2.0 4.0 0.00 0.67 0.67 89 1019.9
20260502034828 52 45 2.0 4.0 0.00 0.67 0.67 89 1020.3
20260502034558 51 45 1.0 4.0 0.00 0.67 0.67 89 1020.0
20260502034324 52 45 2.0 4.0 0.00 0.67 0.67 89 1020.3
20260502034054 51 45 2.0 4.0 0.00 0.67 0.67 89 1020.0
20260502033821 52 45 2.0 3.0 0.00 0.67 0.67 89 1020.4
20260502033544 52 45 1.0 3.0 0.00 0.67 0.67 88 1020.0
20260502033318 52 45 1.0 3.0 0.00 0.67 0.67 88 1020.3
20260502033039 52 45 1.0 3.0 0.00 0.67 0.67 88 1019.9
20260502032814 52 45 1.0 3.0 0.00 0.67 0.67 88 1020.3
20260502032530 52 45 1.0 3.0 0.00 0.67 0.67 88 1020.0
20260502032331 52 45 1.0 3.0 0.00 0.67 0.67 88 1020.3
20260502032010 52 45 1.0 3.0 0.00 0.67 0.67 88 1020.0
20260502031825 53 45 1.0 3.0 0.00 0.67 0.67 88 1020.3
20260502031543 52 45 1.0 3.0 0.00 0.67 0.67 88 1020.0
20260502031340 53 45 2.0 3.0 0.00 0.67 0.67 88 1020.3
20260502031004 52 45 0.0 3.0 0.00 0.67 0.67 88 1019.8
20260502030814 53 45 1.0 3.0 0.00 0.67 0.67 88 1020.1
20260502030558 52 45 0.0 4.0 0.00 0.67 0.67 88 1019.6
20260502030330 53 45 1.0 4.0 0.00 0.67 0.67 87 1019.9
20260502030056 53 45 1.0 4.0 0.00 0.67 0.67 87 1019.4
20260502025846 53 45 3.0 4.0 0.00 0.69 0.67 87 1019.9
20260502025526 53 45 2.0 4.0 0.00 0.69 0.67 87 1019.5
20260502025321 53 45 2.0 5.0 0.00 0.69 0.67 87 1019.9
20260502025020 53 45 1.0 5.0 0.00 0.69 0.67 87 1019.5
20260502024817 54 45 2.0 8.0 0.00 0.69 0.67 87 1019.9
20260502024611 53 45 1.0 8.0 0.00 0.69 0.67 87 1019.4
20260502024353 54 35 2.0 8.0 0.00 0.69 0.67 87 1019.7
20260502024038 53 39 3.0 8.0 0.00 0.69 0.67 86 1019.4
20260502023828 54 26 3.0 6.0 0.00 0.69 0.67 87 1019.8
20260502023531 54 43 3.0 6.0 0.00 0.69 0.67 87 1019.4
20260502023344 54 359 3.0 6.0 0.00 0.69 0.67 87 1019.8
20260502023126 54 20 3.0 6.0 0.00 0.69 0.67 87 1019.5
20260502022820 54 4 3.0 6.0 0.00 0.69 0.67 87 1019.9
20260502022549 54 18 3.0 6.0 0.00 0.69 0.67 87 1019.4
20260502022315 54 10 2.0 6.0 0.00 0.69 0.67 87 1019.6
20260502022044 54 359 4.0 6.0 0.00 0.69 0.67 87 1019.2
20260502021832 54 21 4.0 8.0 0.00 0.69 0.67 87 1019.6
20260502021536 54 22 3.0 9.0 0.00 0.69 0.67 87 1019.1
20260502021328 54 12 4.0 9.0 0.00 0.69 0.67 87 1019.4
20260502021030 54 359 3.0 9.0 0.00 0.69 0.67 87 1019.1
20260502020826 54 354 5.0 9.0 0.00 0.69 0.67 87 1019.4
20260502020527 54 25 3.0 6.0 0.00 0.69 0.67 87 1019.1
20260502020341 54 4 3.0 6.0 0.00 0.69 0.67 87 1019.4
20260502020053 54 359 3.0 5.0 0.00 0.69 0.67 87 1019.0
20260502015815 54 354 3.0 5.0 0.00 0.69 0.67 87 1019.3
20260502015544 54 350 3.0 8.0 0.00 0.69 0.67 87 1018.9
20260502015331 54 11 3.0 8.0 0.00 0.69 0.67 87 1019.3
20260502015036 54 24 3.0 8.0 0.00 0.69 0.67 87 1018.8
20260502014827 54 4 4.0 8.0 0.00 0.69 0.67 87 1019.0
20260502014528 54 28 3.0 5.0 0.00 0.69 0.67 87 1018.6
20260502014323 54 35 3.0 8.0 0.00 0.69 0.67 87 1018.9
20260502014019 54 52 3.0 8.0 0.00 0.69 0.67 87 1018.5
20260502013817 54 39 3.0 8.0 0.00 0.69 0.67 86 1018.9
20260502013502 54 12 3.0 6.0 0.00 0.69 0.67 86 1018.5
20260502013350 54 30 3.0 6.0 0.00 0.69 0.67 86 1018.9
20260502013038 54 32 2.0 6.0 0.00 0.69 0.67 86 1018.5
20260502012824 54 25 4.0 6.0 0.00 0.69 0.67 86 1018.7
20260502012532 54 23 2.0 5.0 0.00 0.69 0.67 86 1018.3
20260502012320 54 23 3.0 5.0 0.00 0.69 0.67 86 1018.6
20260502012022 54 23 1.0 4.0 0.00 0.69 0.67 87 1018.1
20260502011815 55 8 2.0 5.0 0.00 0.69 0.67 86 1018.5
20260502011513 54 11 2.0 5.0 0.00 0.69 0.67 86 1017.9
20260502011331 55 27 3.0 6.0 0.00 0.69 0.67 86 1018.4
20260502011056 54 18 2.0 6.0 0.00 0.69 0.67 86 1017.9
20260502010826 55 14 3.0 6.0 0.00 0.69 0.67 86 1018.4
20260502010548 54 14 2.0 9.0 0.00 0.69 0.67 86 1017.9
20260502010321 55 15 3.0 9.0 0.00 0.69 0.67 86 1018.2
20260502010038 54 8 2.0 9.0 0.00 0.69 0.67 86 1017.7
20260502005816 55 18 5.0 9.0 0.00 0.69 0.67 85 1018.0
20260502005534 55 26 3.0 9.0 0.00 0.69 0.67 85 1017.4
20260502005332 55 42 5.0 9.0 0.00 0.69 0.67 85 1017.9
20260502005015 55 43 4.0 7.0 0.00 0.69 0.67 85 1017.4
20260502004826 55 39 4.0 7.0 0.00 0.69 0.67 86 1017.8
20260502004504 55 62 2.0 11.0 0.00 0.69 0.67 85 1017.5
20260502004323 55 30 3.0 11.0 0.00 0.69 0.67 86 1017.9
20260502004057 55 18 3.0 11.0 0.00 0.69 0.67 85 1017.3
20260502003818 55 35 5.0 11.0 0.00 0.69 0.67 85 1017.7
20260502003550 55 62 5.0 10.0 0.00 0.69 0.67 85 1017.2
20260502003314 55 61 4.0 8.0 0.00 0.69 0.67 85 1017.6
20260502003042 55 46 4.0 9.0 0.00 0.69 0.67 85 1017.2
20260502002831 55 24 4.0 9.0 0.00 0.69 0.67 85 1017.6
20260502002532 55 84 4.0 9.0 0.00 0.69 0.67 85 1017.0
20260502002325 55 57 6.0 12.0 0.00 0.69 0.67 85 1017.4
20260502002026 55 60 4.0 13.0 0.00 0.69 0.67 85 1016.8
20260502001841 55 43 5.0 13.0 0.00 0.69 0.67 85 1017.2
20260502001615 55 89 4.0 13.0 0.00 0.69 0.67 85 1016.8
20260502001337 55 22 8.0 14.0 0.00 0.69 0.67 84 1017.3
20260502001022 55 63 6.0 14.0 0.00 0.69 0.67 84 1016.7
20260502000831 55 62 8.0 14.0 0.00 0.69 0.67 84 1017.1
20260502000510 55 43 6.0 14.0 0.00 0.69 0.67 84 1016.8
20260502000347 56 48 8.0 14.0 0.00 0.69 0.67 84 1017.2
20260502000101 55 65 6.0 14.0 0.00 0.69 0.67 84 1016.7
20260501235820 56 24 6.0 14.0 0.00 0.69 0.67 85 1017.1
20260501235533 55 43 6.0 11.0 0.00 0.69 0.67 85 1016.6
20260501235315 56 69 7.0 14.0 0.00 0.69 0.67 85 1017.0
20260501235033 55 45 6.0 17.0 0.00 0.69 0.67 85 1016.5
20260501234831 56 58 4.0 17.0 0.00 0.69 0.67 84 1016.8
20260501234508 55 67 7.0 17.0 0.00 0.69 0.67 83 1016.4
20260501234327 56 56 7.0 16.0 0.00 0.69 0.67 84 1016.9
20260501234004 55 48 5.0 16.0 0.00 0.69 0.67 84 1016.3
20260501233824 56 31 7.0 16.0 0.00 0.69 0.67 84 1016.9
20260501233558 55 80 6.0 14.0 0.00 0.69 0.67 84 1016.4
20260501233319 56 77 8.0 14.0 0.00 0.69 0.67 84 1016.9
20260501233052 55 73 7.0 14.0 0.00 0.69 0.67 85 1016.3
20260501232833 56 27 8.0 16.0 0.00 0.69 0.67 85 1016.7
20260501232545 55 29 7.0 16.0 0.00 0.69 0.67 85 1016.3
20260501232349 56 65 6.0 16.0 0.00 0.69 0.67 85 1016.7
20260501232012 55 28 6.0 14.0 0.00 0.69 0.67 86 1016.2
20260501231824 56 47 7.0 14.0 0.00 0.69 0.67 86 1016.7
20260501231609 55 39 8.0 14.0 0.00 0.69 0.67 86 1016.2
20260501231322 56 62 5.0 13.0 0.00 0.69 0.67 88 1016.6
20260501231052 55 48 5.0 13.0 0.00 0.69 0.67 87 1016.3
20260501230816 55 68 7.0 13.0 0.00 0.69 0.67 88 1016.7
20260501230544 55 52 6.0 13.0 0.00 0.69 0.67 87 1016.1